Location: Newark
(44.2886°N, 4.8431°E)
Time: 04:28:37
(UTC+00:00)

FALCONSAT 3 - Visible Passes

Search period start: 26 November 2020 00:00
Search period end: 06 December 2020 00:00
Orbit: 447 x 452 km, 35.4° (Epoch: 25 November)

Date Brightness Start Highest point End Pass type
(mag) Time Alt. Az. Time Alt. Az. Time Alt. Az.
01 Dec ? 18:10:58 10° S 18:11:40 12° S 18:11:40 12° S visible
02 Dec ? 17:32:14 10° S 17:33:19 11° SSE 17:34:25 10° SE visible
03 Dec ? 18:29:33 10° SW 18:30:53 16° SSW 18:30:53 16° SSW visible
04 Dec ? 17:50:27 10° SW 17:52:58 18° S 17:53:41 17° SSE visible
05 Dec ? 17:11:19 10° SW 17:13:46 17° S 17:16:14 10° SE visible
05 Dec ? 18:49:15 10° SW 18:50:01 13° SW 18:50:01 13° SW visible
